| time (UTC) | temp F | wind direction | speed MPH | gust MPH | rain 1hr in | rain 24hr in | rain mn in | humidity % | barometer mb |
| 20260505224101 | 60 | 203 | 0.0 | 2.0 | 0.00 | 0.00 | 0.00 | 94 | 1009.9 |
| 20260505223058 | 60 | 203 | 1.0 | 4.0 | 0.00 | 0.00 | 0.00 | 95 | 1010.0 |
| 20260505222055 | 60 | 0.0 | 0.0 | 0.00 | 0.00 | 0.00 | 95 | 1010.1 | |
| 20260505221052 | 61 | 0.0 | 0.0 | 0.00 | 0.00 | 0.00 | 95 | 1010.4 | |
| 20260505220109 | 61 | 0.0 | 2.0 | 0.00 | 0.00 | 0.00 | 95 | 1010.5 | |
| 20260505215046 | 61 | 203 | 0.0 | 2.0 | 0.00 | 0.00 | 0.00 | 95 | 1010.5 |
| 20260505214043 | 61 | 0.0 | 2.0 | 0.00 | 0.00 | 0.00 | 95 | 1010.5 | |
| 20260505213040 | 61 | 0.0 | 2.0 | 0.00 | 0.00 | 0.00 | 95 | 1010.5 | |
| 20260505212037 | 61 | 0.0 | 2.0 | 0.00 | 0.00 | 0.00 | 94 | 1010.7 | |
| 20260505211034 | 62 | 203 | 0.0 | 2.0 | 0.00 | 0.00 | 0.00 | 94 | 1010.6 |
| 20260505210111 | 63 | 0.0 | 2.0 | 0.00 | 0.00 | 0.00 | 94 | 1010.6 | |
| 20260505205028 | 63 | 0.0 | 0.0 | 0.00 | 0.00 | 0.00 | 93 | 1010.5 | |
| 20260505204025 | 63 | 0.0 | 2.0 | 0.00 | 0.00 | 0.00 | 93 | 1010.5 | |
| 20260505203042 | 64 | 203 | 1.0 | 2.0 | 0.00 | 0.00 | 0.00 | 92 | 1010.3 |
| 20260505202019 | 64 | 203 | 0.0 | 2.0 | 0.00 | 0.00 | 0.00 | 92 | 1010.3 |
| 20260505201016 | 64 | 203 | 0.0 | 2.0 | 0.00 | 0.00 | 0.00 | 92 | 1009.9 |
| 20260505200113 | 64 | 180 | 0.0 | 2.0 | 0.00 | 0.00 | 0.00 | 92 | 1009.8 |
| 20260505195110 | 64 | 180 | 0.0 | 2.0 | 0.00 | 0.00 | 0.00 | 92 | 1009.7 |
| 20260505194107 | 64 | 193 | 1.0 | 2.0 | 0.00 | 0.00 | 0.00 | 92 | 1009.6 |
| 20260505193105 | 64 | 199 | 2.0 | 4.0 | 0.00 | 0.00 | 0.00 | 91 | 1009.5 |
| 20260505192102 | 65 | 180 | 1.0 | 2.0 | 0.00 | 0.00 | 0.00 | 91 | 1009.3 |
| 20260505191058 | 65 | 180 | 1.0 | 2.0 | 0.00 | 0.00 | 0.00 | 90 | 1009.2 |
| 20260505190116 | 65 | 180 | 1.0 | 2.0 | 0.00 | 0.00 | 0.00 | 90 | 1009.1 |
| 20260505185052 | 65 | 180 | 1.0 | 4.0 | 0.00 | 0.00 | 0.00 | 89 | 1008.9 |
| 20260505184050 | 65 | 118 | 1.0 | 2.0 | 0.00 | 0.00 | 0.00 | 88 | 1008.9 |
| 20260505183047 | 66 | 180 | 0.0 | 2.0 | 0.00 | 0.00 | 0.00 | 87 | 1008.8 |
| 20260505182104 | 66 | 182 | 2.0 | 4.0 | 0.00 | 0.00 | 0.00 | 86 | 1008.8 |
| 20260505181040 | 67 | 171 | 2.0 | 4.0 | 0.00 | 0.00 | 0.00 | 84 | 1008.8 |
| 20260505180037 | 67 | 131 | 1.0 | 4.0 | 0.00 | 0.00 | 0.00 | 83 | 1008.7 |
| 20260505175055 | 67 | 175 | 1.0 | 4.0 | 0.00 | 0.00 | 0.00 | 83 | 1008.7 |
| 20260505174031 | 68 | 180 | 1.0 | 2.0 | 0.00 | 0.00 | 0.00 | 81 | 1008.6 |
| 20260505173028 | 68 | 154 | 1.0 | 4.0 | 0.00 | 0.00 | 0.00 | 79 | 1008.5 |
| 20260505172026 | 69 | 198 | 2.0 | 4.0 | 0.00 | 0.00 | 0.00 | 80 | 1008.7 |
| 20260505171023 | 69 | 147 | 3.0 | 7.0 | 0.00 | 0.00 | 0.00 | 80 | 1008.7 |
| 20260505170040 | 69 | 172 | 2.0 | 7.0 | 0.00 | 0.00 | 0.00 | 79 | 1008.6 |
| 20260505165037 | 68 | 193 | 4.0 | 7.0 | 0.00 | 0.00 | 0.00 | 79 | 1008.7 |
| 20260505164113 | 69 | 235 | 4.0 | 7.0 | 0.00 | 0.00 | 0.00 | 78 | 1008.8 |
| 20260505163110 | 69 | 205 | 4.0 | 7.0 | 0.00 | 0.00 | 0.00 | 78 | 1008.6 |
| 20260505162108 | 69 | 217 | 3.0 | 4.0 | 0.00 | 0.00 | 0.00 | 77 | 1008.8 |
| 20260505161105 | 69 | 186 | 3.0 | 7.0 | 0.00 | 0.00 | 0.00 | 77 | 1008.8 |
| 20260505160121 | 68 | 207 | 4.0 | 7.0 | 0.00 | 0.00 | 0.00 | 78 | 1008.7 |
| 20260505153052 | 69 | 223 | 3.0 | 7.0 | 0.00 | 0.00 | 0.00 | 76 | 1009.0 |
| 20260505152049 | 68 | 202 | 4.0 | 9.0 | 0.00 | 0.00 | 0.00 | 76 | 1009.0 |
| 20260505151046 | 69 | 225 | 4.0 | 11.0 | 0.00 | 0.00 | 0.00 | 77 | 1009.0 |
| 20260505130108 | 70 | 210 | 5.0 | 7.0 | 0.00 | 0.00 | 0.00 | 70 | 1009.7 |
| 20260505124101 | 71 | 209 | 4.0 | 9.0 | 0.00 | 0.00 | 0.00 | 71 | 1009.9 |
| 20260505123058 | 70 | 215 | 4.0 | 7.0 | 0.00 | 0.00 | 0.00 | 72 | 1010.1 |
| 20260505122116 | 72 | 215 | 3.0 | 7.0 | 0.00 | 0.00 | 0.00 | 69 | 1010.1 |
| 20260505121053 | 69 | 231 | 4.0 | 11.0 | 0.00 | 0.00 | 0.00 | 73 | 1010.1 |
| 20260505120049 | 70 | 217 | 4.0 | 9.0 | 0.00 | 0.00 | 0.00 | 69 | 1010.1 |
| 20260505115046 | 70 | 229 | 4.0 | 7.0 | 0.00 | 0.00 | 0.00 | 69 | 1010.2 |
| 20260505114043 | 71 | 208 | 4.0 | 9.0 | 0.00 | 0.00 | 0.00 | 69 | 1010.2 |
| 20260505113101 | 70 | 189 | 4.0 | 11.0 | 0.00 | 0.00 | 0.00 | 71 | 1010.3 |
| 20260505112038 | 71 | 185 | 4.0 | 8.0 | 0.00 | 0.00 | 0.00 | 71 | 1010.5 |
| 20260505111035 | 70 | 202 | 5.0 | 8.0 | 0.00 | 0.00 | 0.00 | 70 | 1010.5 |
| 20260505102020 | 71 | 201 | 4.0 | 8.0 | 0.00 | 0.00 | 0.00 | 70 | 1010.6 |
| 20260505101017 | 70 | 183 | 4.0 | 9.0 | 0.00 | 0.00 | 0.00 | 71 | 1010.6 |
| 20260505100114 | 70 | 231 | 4.0 | 8.0 | 0.00 | 0.00 | 0.00 | 71 | 1010.6 |
| 20260505095132 | 69 | 150 | 3.0 | 6.0 | 0.00 | 0.00 | 0.00 | 72 | 1010.6 |
| 20260505094148 | 70 | 223 | 4.0 | 9.0 | 0.00 | 0.00 | 0.00 | 71 | 1010.6 |
| 20260505093126 | 69 | 159 | 4.0 | 7.0 | 0.00 | 0.00 | 0.00 | 71 | 1010.7 |
| 20260505092123 | 69 | 155 | 1.0 | 7.0 | 0.00 | 0.00 | 0.00 | 72 | 1010.6 |
| 20260505091059 | 69 | 165 | 3.0 | 7.0 | 0.00 | 0.00 | 0.00 | 72 | 1010.6 |
| 20260505090056 | 69 | 175 | 3.0 | 6.0 | 0.00 | 0.00 | 0.00 | 74 | 1010.6 |
| 20260505085053 | 67 | 203 | 2.0 | 4.0 | 0.00 | 0.00 | 0.00 | 77 | 1010.6 |
| 20260505084050 | 68 | 196 | 2.0 | 7.0 | 0.00 | 0.00 | 0.00 | 76 | 1010.7 |
| 20260505083047 | 68 | 160 | 1.0 | 4.0 | 0.00 | 0.00 | 0.00 | 77 | 1010.6 |
| 20260505082105 | 66 | 209 | 2.0 | 6.0 | 0.00 | 0.00 | 0.00 | 82 | 1010.7 |
| 20260505081041 | 66 | 203 | 1.0 | 2.0 | 0.00 | 0.00 | 0.00 | 85 | 1010.7 |
| 20260505080038 | 65 | 203 | 0.0 | 2.0 | 0.00 | 0.00 | 0.00 | 84 | 1010.8 |
| 20260505075056 | 65 | 193 | 2.0 | 4.0 | 0.00 | 0.00 | 0.00 | 84 | 1010.7 |
| 20260505074032 | 65 | 0.0 | 2.0 | 0.00 | 0.00 | 0.00 | 85 | 1010.7 | |
| 20260505073050 | 65 | 113 | 1.0 | 2.0 | 0.00 | 0.00 | 0.00 | 84 | 1010.7 |
| 20260505072026 | 65 | 113 | 0.0 | 2.0 | 0.00 | 0.00 | 0.00 | 84 | 1010.8 |
| 20260505071023 | 65 | 0.0 | 2.0 | 0.00 | 0.00 | 0.00 | 92 | 1010.7 | |
| 20260505070021 | 62 | 0.0 | 2.0 | 0.00 | 0.00 | 0.00 | 96 | 1010.7 | |
| 20260505065038 | 62 | 0.0 | 0.0 | 0.00 | 0.00 | 0.00 | 96 | 1010.8 | |
| 20260505064115 | 61 | 0.0 | 0.0 | 0.00 | 0.00 | 0.00 | 97 | 1010.8 | |
| 20260505063112 | 61 | 0.0 | 2.0 | 0.00 | 0.00 | 0.00 | 97 | 1010.7 | |
| 20260505062109 | 60 | 0.0 | 2.0 | 0.00 | 0.00 | 0.00 | 98 | 1010.7 | |
| 20260505061106 | 60 | 0.0 | 0.0 | 0.00 | 0.00 | 0.00 | 98 | 1010.7 | |
| 20260505060103 | 60 | 0.0 | 0.0 | 0.00 | 0.00 | 0.00 | 98 | 1010.7 | |
| 20260505055100 | 59 | 0.0 | 2.0 | 0.00 | 0.00 | 0.00 | 98 | 1010.7 | |
| 20260505054057 | 59 | 0.0 | 0.0 | 0.00 | 0.00 | 0.00 | 98 | 1010.6 | |
| 20260505053054 | 58 | 0.0 | 0.0 | 0.00 | 0.00 | 0.00 | 98 | 1010.7 | |
| 20260505052111 | 58 | 0.0 | 0.0 | 0.00 | 0.00 | 0.00 | 98 | 1010.7 | |
| 20260505051108 | 58 | 0.0 | 0.0 | 0.00 | 0.00 | 0.00 | 98 | 1010.5 | |
| 20260505041051 | 58 | 0.0 | 2.0 | 0.00 | 0.00 | 0.00 | 98 | 1010.8 | |
| 20260505040028 | 59 | 0.0 | 0.0 | 0.00 | 0.00 | 0.00 | 98 | 1010.8 | |
| 20260505035024 | 59 | 0.0 | 0.0 | 0.00 | 0.00 | 0.00 | 98 | 1010.8 | |
| 20260505034022 | 59 | 0.0 | 0.0 | 0.00 | 0.00 | 0.00 | 98 | 1010.9 | |
| 20260505033019 | 59 | 0.0 | 0.0 | 0.00 | 0.00 | 0.00 | 98 | 1011.0 | |
| 20260505032016 | 58 | 0.0 | 0.0 | 0.00 | 0.00 | 0.00 | 98 | 1011.0 | |
| 20260505031113 | 58 | 0.0 | 0.0 | 0.00 | 0.00 | 0.00 | 97 | 1011.1 | |
| 20260505030109 | 58 | 0.0 | 0.0 | 0.00 | 0.00 | 0.00 | 97 | 1011.0 | |
| 20260505025107 | 59 | 0.0 | 0.0 | 0.00 | 0.00 | 0.00 | 97 | 1011.1 | |
| 20260505024103 | 59 | 0.0 | 0.0 | 0.00 | 0.00 | 0.00 | 97 | 1011.2 | |
| 20260505023100 | 59 | 0.0 | 0.0 | 0.00 | 0.00 | 0.00 | 97 | 1011.3 | |
| 20260505022119 | 60 | 0.0 | 0.0 | 0.00 | 0.00 | 0.00 | 97 | 1011.3 | |
| 20260505021054 | 60 | 0.0 | 2.0 | 0.00 | 0.00 | 0.00 | 97 | 1011.4 | |
| 20260505020052 | 60 | 0.0 | 2.0 | 0.00 | 0.00 | 0.00 | 97 | 1011.4 | |
| 20260505015049 | 60 | 0.0 | 0.0 | 0.00 | 0.00 | 0.00 | 96 | 1011.4 | |
| 20260505014045 | 60 | 0.0 | 0.0 | 0.00 | 0.00 | 0.00 | 96 | 1011.4 | |
| 20260505013042 | 61 | 0.0 | 0.0 | 0.00 | 0.00 | 0.00 | 96 | 1011.5 | |
| 20260505012040 | 61 | 0.0 | 2.0 | 0.00 | 0.00 | 0.00 | 96 | 1011.5 | |
| 20260505011036 | 62 | 0.0 | 0.0 | 0.00 | 0.00 | 0.00 | 96 | 1011.7 | |
| 20260505010034 | 61 | 0.0 | 0.0 | 0.00 | 0.00 | 0.00 | 96 | 1011.8 | |
| 20260505005051 | 62 | 113 | 0.0 | 2.0 | 0.00 | 0.00 | 0.00 | 96 | 1011.8 |
| 20260505004028 | 62 | 0.0 | 0.0 | 0.00 | 0.00 | 0.00 | 96 | 1012.0 | |
| 20260505003045 | 61 | 0.0 | 0.0 | 0.00 | 0.00 | 0.00 | 96 | 1012.0 | |
| 20260505002022 | 62 | 113 | 0.0 | 2.0 | 0.00 | 0.00 | 0.00 | 96 | 1012.1 |
| 20260505001019 | 61 | 0.0 | 2.0 | 0.00 | 0.00 | 0.00 | 97 | 1012.0 | |
| 20260505000016 | 61 | 0.0 | 2.0 | 0.00 | 0.00 | 0.00 | 97 | 1012.2 | |
| 20260504235113 | 61 | 0.0 | 0.0 | 0.00 | 0.00 | 0.00 | 97 | 1012.2 | |
| 20260504234130 | 61 | 0.0 | 0.0 | 0.00 | 0.00 | 0.00 | 97 | 1012.1 | |
| 20260504233107 | 61 | 0.0 | 0.0 | 0.00 | 0.00 | 0.00 | 97 | 1012.3 | |
| 20260504232104 | 60 | 0.0 | 0.0 | 0.00 | 0.00 | 0.00 | 97 | 1012.2 | |
| 20260504231101 | 60 | 0.0 | 2.0 | 0.00 | 0.00 | 0.00 | 97 | 1012.1 | |
| 20260504230058 | 60 | 0.0 | 2.0 | 0.00 | 0.00 | 0.00 | 96 | 1012.2 | |
| 20260504225055 | 60 | 0.0 | 0.0 | 0.00 | 0.00 | 0.00 | 96 | 1012.2 |